Regional Weather Roundup
Issued by NWS Kansas City/Pleasant Hill, MO

Home | Current Version | Previous Version | Text Only | Print | Product List | Glossary On
Versions: 1 2 3 4 5 6 7 8 9 10 11 12 13 14 15 16 17 18 19 20 21 22 23 24 25 26 27 28 29 30 31 32 33 34 35 36 37 38 39 40 41 42 43 44 45 46 47 48 49 50
000
ASUS43 KEAX 221910
RWREAX

WEATHER ROUNDUP FOR EASTERN KANSAS AND NORTHWEST MISSOURI
NATIONAL WEATHER SERVICE KANSAS CITY/PLEASANT HILL MO
200 PM CDT TUE AUG 22 2017

KSZ040-057-103>105-MOZ028-029-037-043-222000-
...KANSAS CITY METROPOLITAN AREA...

CITY           SKY/WX    TMP DP  RH WIND       PRES   REMARKS
K.C. INTL      PTSUNNY   78  64  61 N14       30.13R
K.C. DOWNTOWN  SUNNY     80  64  58 NW10      30.10F
LEES SUMMIT    SUNNY     79  66  64 MISG      30.12S
OLATHE - IXD   SUNNY     79  68  69 N14       30.12F
OLATHE - OJC   SUNNY     79  66  64 N13G20    30.12S
LAWRENCE       SUNNY     80  65  59 N8        30.12S

$$

MOZ001>008-011>017-020>025-030>033-038>040-044>046-053-054-222000-
...NORTHERN AND CENTRAL MISSOURI...

CITY           SKY/WX    TMP DP  RH WIND       PRES   REMARKS
ST. JOSEPH     MOSUNNY   77  65  66 N12       30.13S
MOSBY          PTCLDY    77  61  57 N12G20    30.11S
WARRENSBURG    SUNNY     79  66  65 NW10      30.10S
WHITEMAN AFB   MOSUNNY   79  71  75 N10       30.08F
CLINTON        MOSUNNY   79  68  69 N9        30.09F
SEDALIA        MOSUNNY   82  70  66 NW7       30.10F
WARSAW         NOT AVBL
CHILLICOTHE      N/A     79  63  57 VRB6      30.10S
KIRKSVILLE     SUNNY     79  57  46 N13       30.08S

$$

MOZ041-047>049-056>058-063>065-088>090-097-222000-
...EASTERN AND SOUTHERN MISSOURI...

CITY           SKY/WX    TMP DP  RH WIND       PRES   REMARKS
ST. LOUIS INTL PTSUNNY   80  68  66 NW12G20   30.03S
SPIRIT OF STL  PTSUNNY   79  69  71 NW15      30.02F
COLUMBIA       PTSUNNY   80  68  66 W12       30.07F
JEFFERSON CITY MOSUNNY   79  71  76 NW14      30.06F
ROLLA          CLOUDY    75  68  78 NW17G23   30.08F
OSAGE BEACH    PTSUNNY   78  69  73 NW8       30.08F
SPRINGFIELD    CLOUDY    81  69  67 NW7       30.07F
BRANSON        PTSUNNY   75  70  83 NE5       30.09S
JOPLIN         PTSUNNY   85  73  67 VRB5      30.08S HX  91
WEST PLAINS    CLOUDY    76  69  79 N9        30.07F

$$

IAZ060-094-KSZ022-034>040-054-083-096-NEZ052-066-093-222000-
...KANSAS...SOUTHEAST NEBRASKA AND IOWA...

CITY           SKY/WX    TMP DP  RH WIND       PRES   REMARKS
TOPEKA         PTSUNNY   78  67  68 N9        30.13S
MANHATTAN      SUNNY     82  59  45 N15G22    30.14F
EMPORIA        MOSUNNY   81  67  62 NE13G21   30.13S
CHANUTE        CLOUDY    75  70  84 N8        30.11S
WICHITA        PTSUNNY   83  70  64 NE17G24   30.12R
OMAHA          MOSUNNY   76  47  35 N14       30.17S
LINCOLN        SUNNY     76  51  41 NE10      30.21R
FALLS CITY     SUNNY     75  53  46 N15       30.15R
LAMONI         SUNNY     77  49  37 NW14      30.11S
DES MOINES     MOSUNNY   77  47  34 N15       30.10S

$$




USA.gov is the U.S. government's official web portal to all federal, state and local government web resources and services.